EW6205 Weather Reports


Display with metric or nautical units.
time (UTC)temp
F
wind
direction
speed
MPH
gust
MPH
rain 1hr
in
rain 24hr
in
rain mn
in
humidity
%
barometer
mb
20210614155706 78 146 3.0 12.0 0.00 0.00 0.00 41 1018.7
20210614155205 77 147 4.0 12.0 0.00 0.00 0.00 41 1018.8
20210614154706 77 110 5.0 15.0 0.00 0.00 0.00 42 1018.8
20210614154206 77 118 6.0 15.0 0.00 0.00 0.00 43 1018.7
20210614153705 76 101 6.0 15.0 0.00 0.00 0.00 42 1018.8
20210614153204 76 156 6.0 12.0 0.00 0.00 0.00 43 1018.8
20210614152704 76 152 6.0 13.0 0.00 0.00 0.00 42 1018.8
20210614152205 76 109 5.0 13.0 0.00 0.00 0.00 42 1018.8
20210614151705 75 92 5.0 13.0 0.00 0.00 0.00 44 1018.8
20210614151204 75 127 4.0 12.0 0.00 0.00 0.00 44 1018.8
20210614150705 74 122 4.0 12.0 0.00 0.00 0.00 44 1018.7
20210614150206 74 122 5.0 12.0 0.00 0.00 0.00 44 1018.8
20210614145704 74 175 4.0 10.0 0.00 0.00 0.00 45 1018.8
20210614145205 74 129 5.0 10.0 0.00 0.00 0.00 45 1018.8
20210614144707 74 101 5.0 9.0 0.00 0.00 0.00 45 1018.7
20210614144205 73 130 4.0 9.0 0.00 0.00 0.00 45 1018.7
20210614143705 73 114 4.0 9.0 0.00 0.00 0.00 45 1018.6
20210614143205 73 156 3.0 6.0 0.00 0.00 0.00 45 1018.6
20210614142705 73 206 2.0 9.0 0.00 0.00 0.00 46 1018.5
20210614142205 73 125 2.0 9.0 0.00 0.00 0.00 47 1018.5
20210614141704 72 113 4.0 15.0 0.00 0.00 0.00 47 1018.6
20210614141205 72 107 6.0 15.0 0.00 0.00 0.00 47 1018.5
20210614140705 71 117 6.0 15.0 0.00 0.00 0.00 46 1018.5
20210614140205 71 120 4.0 11.0 0.00 0.00 0.00 46 1018.5
20210614135705 71 155 3.0 10.0 0.00 0.00 0.00 48 1018.4
20210614135205 71 122 3.0 10.0 0.00 0.00 0.00 47 1018.4
20210614134705 71 108 3.0 10.0 0.00 0.00 0.00 47 1018.4
20210614134205 70 124 3.0 7.0 0.00 0.00 0.00 47 1018.4
20210614133705 70 111 3.0 7.0 0.00 0.00 0.00 48 1018.4
20210614133205 70 155 3.0 7.0 0.00 0.00 0.00 48 1018.4
20210614132709 70 112 2.0 6.0 0.00 0.00 0.00 49 1018.4
20210614132204 69 105 3.0 6.0 0.00 0.00 0.00 49 1018.3
20210614131705 69 195 3.0 7.0 0.00 0.00 0.00 49 1018.3
20210614131206 69 139 3.0 7.0 0.00 0.00 0.00 49 1018.4
20210614130706 69 120 3.0 7.0 0.00 0.00 0.00 50 1018.4
20210614130205 68 139 2.0 6.0 0.00 0.00 0.00 51 1018.4
20210614125720 68 105 1.0 4.0 0.00 0.00 0.00 51 1018.5
20210614125205 68 39 1.0 4.0 0.00 0.00 0.00 53 1018.5
20210614124705 67 102 2.0 4.0 0.00 0.00 0.00 54 1018.4
20210614124205 67 134 1.0 5.0 0.00 0.00 0.00 54 1018.4
20210614123706 67 109 1.0 5.0 0.00 0.00 0.00 54 1018.4
20210614123205 66 128 1.0 5.0 0.00 0.00 0.00 55 1018.4
20210614122705 66 148 0.0 2.0 0.00 0.00 0.00 56 1018.4
20210614122217 66 134 0.0 0.0 0.00 0.00 0.00 57 1018.3
20210614121706 65 335 0.0 0.0 0.00 0.00 0.00 60 1018.3
20210614121205 64 335 0.0 0.0 0.00 0.00 0.00 62 1018.4
20210614120707 63 335 0.0 0.0 0.00 0.00 0.00 64 1018.3
20210614120205 62 335 0.0 0.0 0.00 0.00 0.00 65 1018.3
20210614115705 61 335 0.0 0.0 0.00 0.00 0.00 68 1018.3
20210614115205 61 335 0.0 0.0 0.00 0.00 0.00 68 1018.4
20210614114708 60 335 0.0 0.0 0.00 0.00 0.00 69 1018.3
20210614114204 60 335 0.0 0.0 0.00 0.00 0.00 71 1018.3
20210614113705 59 335 0.0 0.0 0.00 0.00 0.00 71 1018.3
20210614113206 59 335 0.0 0.0 0.00 0.00 0.00 71 1018.1
20210614112705 59 335 0.0 0.0 0.00 0.00 0.00 72 1018.1
20210614112205 59 335 0.0 0.0 0.00 0.00 0.00 72 1018.1
20210614111705 59 335 0.0 0.0 0.00 0.00 0.00 72 1018.0
20210614111206 59 335 0.0 0.0 0.00 0.00 0.00 72 1018.0
20210614110705 59 335 0.0 0.0 0.00 0.00 0.00 72 1017.9
20210614110205 59 335 0.0 0.0 0.00 0.00 0.00 72 1017.9
20210614105705 59 342 0.0 0.0 0.00 0.00 0.00 73 1017.9
20210614105205 59 340 0.0 0.0 0.00 0.00 0.00 73 1017.8
20210614104706 59 340 0.0 0.0 0.00 0.00 0.00 73 1017.9
20210614104206 59 340 0.0 0.0 0.00 0.00 0.00 73 1017.8
20210614103705 59 340 0.0 0.0 0.00 0.00 0.00 72 1017.9
20210614103205 59 340 0.0 0.0 0.00 0.00 0.00 72 1017.9
20210614102705 59 340 0.0 0.0 0.00 0.00 0.00 72 1017.8
20210614102205 59 340 0.0 0.0 0.00 0.00 0.00 72 1017.8
20210614101705 60 340 0.0 0.0 0.00 0.00 0.00 71 1017.8
20210614101206 60 340 0.0 0.0 0.00 0.00 0.00 71 1017.8
20210614100705 60 340 0.0 0.0 0.00 0.00 0.00 72 1017.8
20210614100205 60 340 0.0 0.0 0.00 0.00 0.00 72 1017.7
20210614095706 60 340 0.0 0.0 0.00 0.00 0.00 73 1017.7
20210614095205 60 340 0.0 0.0 0.00 0.00 0.00 72 1017.8
20210614094705 60 340 0.0 0.0 0.00 0.00 0.00 73 1017.8
20210614094206 60 340 0.0 0.0 0.00 0.00 0.00 72 1017.9
20210614093704 60 340 0.0 0.0 0.00 0.00 0.00 73 1017.8
20210614093205 60 340 0.0 0.0 0.00 0.00 0.00 74 1017.7
20210614092705 60 340 0.0 0.0 0.00 0.00 0.00 74 1017.7
20210614092205 60 340 0.0 0.0 0.00 0.00 0.00 74 1017.8
20210614091706 60 340 0.0 0.0 0.00 0.00 0.00 73 1017.7
20210614091204 60 340 0.0 0.0 0.00 0.00 0.00 73 1017.8
20210614090706 60 340 0.0 0.0 0.00 0.00 0.00 73 1017.7
20210614090205 60 340 0.0 0.0 0.00 0.00 0.00 72 1017.7
20210614085705 61 340 0.0 0.0 0.00 0.00 0.00 72 1017.8
20210614085206 61 340 0.0 0.0 0.00 0.00 0.00 71 1017.7
20210614084705 61 340 0.0 0.0 0.00 0.00 0.00 71 1017.7
20210614084206 61 340 0.0 0.0 0.00 0.00 0.00 70 1017.7
20210614083705 61 340 0.0 0.0 0.00 0.00 0.00 70 1017.6
20210614083205 61 340 0.0 0.0 0.00 0.00 0.00 70 1017.6
20210614082705 62 340 0.0 0.0 0.00 0.00 0.00 69 1017.5
20210614082205 62 340 0.0 0.0 0.00 0.00 0.00 69 1017.5
20210614081706 62 340 0.0 0.0 0.00 0.00 0.00 68 1017.4
20210614081206 62 340 0.0 0.0 0.00 0.00 0.00 68 1017.4
20210614080705 63 340 0.0 0.0 0.00 0.00 0.00 68 1017.4
20210614080204 63 340 0.0 0.0 0.00 0.00 0.00 68 1017.4
20210614075708 63 340 0.0 0.0 0.00 0.00 0.00 68 1017.3
20210614075206 63 42 0.0 0.0 0.00 0.00 0.00 67 1017.3
20210614074705 63 42 0.0 0.0 0.00 0.00 0.00 67 1017.3
20210614074205 64 23 0.0 0.0 0.00 0.00 0.00 67 1017.3
20210614073705 64 326 0.0 0.0 0.00 0.00 0.00 66 1017.3
20210614073206 64 98 0.0 0.0 0.00 0.00 0.00 66 1017.3
20210614072705 64 100 0.0 0.0 0.00 0.00 0.00 65 1017.3
20210614072205 64 100 0.0 0.0 0.00 0.00 0.00 64 1017.3
20210614071705 65 100 0.0 0.0 0.00 0.00 0.00 63 1017.3
20210614071205 65 100 0.0 0.0 0.00 0.00 0.00 63 1017.2
20210614070706 65 103 0.0 0.0 0.00 0.00 0.00 62 1017.3
20210614070206 66 101 0.0 1.0 0.00 0.00 0.00 62 1017.2
20210614065705 66 101 0.0 1.0 0.00 0.00 0.00 61 1017.1
20210614065206 66 96 0.0 1.0 0.00 0.00 0.00 61 1017.1
20210614064705 66 86 0.0 1.0 0.00 0.00 0.00 61 1017.0
20210614064205 66 89 0.0 3.0 0.00 0.00 0.00 61 1017.1
20210614063705 66 88 0.0 3.0 0.00 0.00 0.00 60 1017.1
20210614063205 66 95 0.0 4.0 0.00 0.00 0.00 60 1017.0
20210614062705 66 90 0.0 5.0 0.00 0.00 0.00 60 1017.1
20210614062206 66 219 1.0 5.0 0.00 0.00 0.00 59 1017.0
20210614061705 66 330 0.0 1.0 0.00 0.00 0.00 60 1017.0
20210614061205 65 126 0.0 0.0 0.00 0.00 0.00 60 1017.0
20210614060705 65 324 0.0 0.0 0.00 0.00 0.00 61 1016.9
20210614060205 65 324 0.0 0.0 0.00 0.00 0.00 62 1017.0
20210614055705 65 342 0.0 0.0 0.00 0.00 0.00 62 1017.0
20210614055205 65 341 0.0 0.0 0.00 0.00 0.00 61 1016.9
20210614054704 65 341 0.0 0.0 0.00 0.00 0.00 60 1016.9
20210614054205 66 341 0.0 0.0 0.00 0.00 0.00 60 1016.9
20210614053705 66 342 0.0 0.0 0.00 0.00 0.00 60 1016.9
20210614053206 66 341 0.0 0.0 0.00 0.00 0.00 60 1016.9
20210614052704 66 342 0.0 0.0 0.00 0.00 0.00 60 1016.9
20210614052204 66 338 0.0 0.0 0.00 0.00 0.00 59 1016.8
20210614051705 66 22 0.0 0.0 0.00 0.00 0.00 59 1016.8
20210614051204 67 0 0.0 0.0 0.00 0.00 0.00 59 1016.7
20210614050706 67 57 0.0 1.0 0.00 0.00 0.00 59 1016.7
20210614050206 67 60 0.0 2.0 0.00 0.00 0.00 57 1016.7
20210614045706 67 60 0.0 2.0 0.00 0.00 0.00 57 1016.6
20210614045205 68 58 0.0 2.0 0.00 0.00 0.00 56 1016.7
20210614044705 68 23 0.0 0.0 0.00 0.00 0.00 57 1016.6
20210614044205 68 56 0.0 0.0 0.00 0.00 0.00 57 1016.6
20210614043705 68 15 0.0 0.0 0.00 0.00 0.00 57 1016.7
20210614043205 68 4 0.0 0.0 0.00 0.00 0.00 58 1016.7
20210614042705 69 32 0.0 0.0 0.00 0.00 0.00 57 1016.7
20210614042206 69 345 0.0 0.0 0.00 0.00 0.00 57 1016.7
20210614041705 69 58 0.0 0.0 0.00 0.00 0.00 57 1016.7
20210614041205 69 43 0.0 0.0 0.00 0.00 0.00 57 1016.6
20210614040705 69 32 0.0 0.0 0.00 0.00 0.00 57 1016.6
20210614040206 70 56 0.0 0.0 0.00 0.00 0.00 56 1016.6
20210614035705 70 345 0.0 0.0 0.00 0.00 0.00 56 1016.5
20210614035205 70 55 0.0 2.0 0.00 0.00 0.00 55 1016.5
20210614034706 71 338 0.0 2.0 0.00 0.00 0.00 53 1016.5
20210614034205 71 20 0.0 2.0 0.00 0.00 0.00 52 1016.3
20210614033705 71 25 0.0 0.0 0.00 0.00 0.00 51 1016.3
20210614033205 71 85 0.0 0.0 0.00 0.00 0.00 51 1016.2
20210614032706 72 62 0.0 0.0 0.00 0.00 0.00 50 1016.2
20210614032205 72 89 0.0 1.0 0.00 0.00 0.00 50 1016.2
20210614031706 72 72 0.0 1.0 0.00 0.00 0.00 50 1016.1
20210614031205 73 72 0.0 1.0 0.00 0.00 0.00 49 1016.0
20210614030705 73 31 0.0 1.0 0.00 0.00 0.00 48 1016.0
20210614030205 74 97 0.0 0.0 0.00 0.00 0.00 47 1016.0
20210614025705 74 23 0.0 1.0 0.00 0.00 0.00 46 1016.0
20210614025206 74 56 0.0 1.0 0.00 0.00 0.00 45 1015.9
20210614024705 75 60 0.0 5.0 0.00 0.00 0.00 44 1015.9
20210614024208 75 80 0.0 5.0 0.00 0.00 0.00 43 1015.9
20210614023705 76 101 0.0 5.0 0.00 0.00 0.00 42 1015.8
20210614023205 76 67 0.0 1.0 0.00 0.00 0.00 41 1015.8
20210614022705 77 86 0.0 4.0 0.00 0.00 0.00 42 1015.8
20210614022205 78 100 0.0 4.0 0.00 0.00 0.00 41 1015.8
20210614021706 78 333 0.0 7.0 0.00 0.00 0.00 40 1015.7
20210614021205 79 96 1.0 7.0 0.00 0.00 0.00 38 1015.6
20210614020706 79 89 2.0 7.0 0.00 0.00 0.00 38 1015.7
20210614020205 80 87 3.0 6.0 0.00 0.00 0.00 37 1015.7
20210614015705 80 96 3.0 7.0 0.00 0.00 0.00 37 1015.7
20210614015205 80 119 3.0 7.0 0.00 0.00 0.00 36 1015.7
20210614014705 80 124 3.0 7.0 0.00 0.00 0.00 35 1015.7
20210614014205 81 164 3.0 7.0 0.00 0.00 0.00 35 1015.7
20210614013705 81 100 3.0 7.0 0.00 0.00 0.00 35 1015.8
20210614013205 81 108 3.0 9.0 0.00 0.00 0.00 34 1015.7
20210614012705 81 117 3.0 9.0 0.00 0.00 0.00 34 1015.8
20210614012205 82 139 3.0 7.0 0.00 0.00 0.00 33 1015.8
20210614011705 82 117 3.0 8.0 0.00 0.00 0.00 34 1015.8
20210614011205 82 109 3.0 8.0 0.00 0.00 0.00 32 1015.8
20210614010705 82 182 3.0 8.0 0.00 0.00 0.00 33 1015.9
20210614010205 82 160 3.0 7.0 0.00 0.00 0.00 33 1016.0
20210614005705 81 184 4.0 7.0 0.00 0.00 0.00 33 1016.0
20210614005204 82 138 3.0 7.0 0.00 0.00 0.00 33 1015.9
20210614004705 82 120 2.0 7.0 0.00 0.00 0.00 33 1016.0
20210614004205 82 208 2.0 5.0 0.00 0.00 0.00 33 1016.0
20210614003705 82 138 1.0 5.0 0.00 0.00 0.00 32 1016.0
20210614003205 83 159 1.0 5.0 0.00 0.00 0.00 32 1016.1
20210614002705 83 114 1.0 9.0 0.00 0.00 0.00 32 1016.1
20210614002205 83 128 2.0 9.0 0.00 0.00 0.00 31 1016.1
20210614001705 83 179 2.0 9.0 0.00 0.00 0.00 31 1016.1
20210614001205 83 198 2.0 9.0 0.00 0.00 0.00 31 1016.1
20210614000705 83 160 2.0 9.0 0.00 0.00 0.00 31 1016.1
20210614000205 83 143 2.0 6.0 0.00 0.00 0.00 30 1016.1
20210613235705 83 75 1.0 4.0 0.00 0.00 0.00 29 1016.2
20210613235205 83 140 0.0 3.0 0.00 0.00 0.00 29 1016.1
20210613234705 83 111 0.0 4.0 0.00 0.00 0.00 29 1016.1
20210613234205 83 316 0.0 5.0 0.00 0.00 0.00 28 1016.0
20210613233705 83 324 1.0 7.0 0.00 0.00 0.00 29 1016.0
20210613233205 83 72 1.0 7.0 0.00 0.00 0.00 29 1016.1
20210613232705 83 172 1.0 7.0 0.00 0.00 0.00 29 1016.1
20210613232205 83 316 1.0 6.0 0.00 0.00 0.00 28 1016.1
20210613231705 83 318 0.0 6.0 0.00 0.00 0.00 29 1016.2
20210613231205 83 311 1.0 6.0 0.00 0.00 0.00 29 1016.2
20210613230706 83 117 2.0 5.0 0.00 0.00 0.00 29 1016.1
20210613230205 83 96 1.0 4.0 0.00 0.00 0.00 29 1016.1
20210613225706 83 84 0.0 3.0 0.00 0.00 0.00 27 1016.2
20210613225205 82 115 0.0 1.0 0.00 0.00 0.00 28 1016.3
20210613224706 83 261 0.0 4.0 0.00 0.00 0.00 28 1016.5
20210613224205 83 49 0.0 6.0 0.00 0.00 0.00 28 1016.3
20210613223705 83 79 1.0 6.0 0.00 0.00 0.00 29 1016.3
20210613223205 82 68 0.0 6.0 0.00 0.00 0.00 28 1016.5
20210613222705 82 325 0.0 2.0 0.00 0.00 0.00 29 1016.3
20210613222205 82 353 0.0 2.0 0.00 0.00 0.00 28 1016.5
20210613221705 82 328 0.0 2.0 0.00 0.00 0.00 29 1016.5
20210613221205 82 295 0.0 2.0 0.00 0.00 0.00 27 1016.5
20210613220706 83 307 0.0 4.0 0.00 0.00 0.00 27 1016.6
20210613220205 83 107 0.0 4.0 0.00 0.00 0.00 27 1016.6
20210613215705 82 290 0.0 4.0 0.00 0.00 0.00 29 1016.6
20210613215206 81 282 0.0 2.0 0.00 0.00 0.00 29 1016.6
20210613214705 82 328 0.0 2.0 0.00 0.00 0.00 29 1016.6
20210613214206 82 329 0.0 2.0 0.00 0.00 0.00 28 1016.6
20210613213705 83 103 0.0 3.0 0.00 0.00 0.00 28 1016.8
20210613213205 82 113 0.0 3.0 0.00 0.00 0.00 28 1016.7
20210613212705 82 60 0.0 2.0 0.00 0.00 0.00 30 1016.6
20210613212205 82 70 0.0 1.0 0.00 0.00 0.00 29 1016.8
20210613211705 82 325 0.0 6.0 0.00 0.00 0.00 29 1016.8
20210613211206 82 110 0.0 6.0 0.00 0.00 0.00 28 1016.9
20210613210707 82 15 1.0 6.0 0.00 0.00 0.00 29 1016.8
20210613210205 81 103 1.0 1.0 0.00 0.00 0.00 29 1016.9
20210613205704 82 289 0.0 4.0 0.00 0.00 0.00 29 1016.9
20210613205205 81 298 0.0 5.0 0.00 0.00 0.00 26 1017.0
20210613204705 81 271 1.0 5.0 0.00 0.00 0.00 28 1017.0
20210613204205 81 25 1.0 5.0 0.00 0.00 0.00 28 1017.0
20210613203705 80 297 0.0 1.0 0.00 0.00 0.00 28 1017.0
20210613203205 81 300 0.0 1.0 0.00 0.00 0.00 29 1017.1
20210613202704 80 319 0.0 1.0 0.00 0.00 0.00 31 1017.1
20210613202206 80 254 0.0 5.0 0.00 0.00 0.00 28 1017.1
20210613201708 80 308 0.0 8.0 0.00 0.00 0.00 28 1017.2
20210613201205 80 91 1.0 8.0 0.00 0.00 0.00 29 1017.2
20210613200706 80 314 1.0 7.0 0.00 0.00 0.00 29 1017.2
20210613200204 81 295 0.0 7.0 0.00 0.00 0.00 30 1017.2
20210613195705 80 265 1.0 7.0 0.00 0.00 0.00 30 1017.2
20210613195205 80 110 1.0 1.0 0.00 0.00 0.00 29 1017.2
20210613194706 80 315 0.0 1.0 0.00 0.00 0.00 29 1017.2
20210613194204 79 304 0.0 1.0 0.00 0.00 0.00 30 1017.3
20210613193705 80 316 0.0 1.0 0.00 0.00 0.00 30 1017.2
20210613193205 80 48 0.0 1.0 0.00 0.00 0.00 31 1017.2
20210613192705 79 326 0.0 1.0 0.00 0.00 0.00 27 1017.3
20210613192205 79 321 0.0 1.0 0.00 0.00 0.00 31 1017.4
20210613191706 79 30 0.0 8.0 0.00 0.00 0.00 28 1017.5
20210613191205 79 314 1.0 8.0 0.00 0.00 0.00 29 1017.5
20210613190705 80 295 1.0 4.0 0.00 0.00 0.00 30 1017.5
20210613190205 80 112 0.0 5.0 0.00 0.00 0.00 31 1017.5
20210613185706 79 272 1.0 5.0 0.00 0.00 0.00 34 1017.6
20210613185205 78 79 1.0 1.0 0.00 0.00 0.00 31 1017.6
20210613184705 78 326 0.0 1.0 0.00 0.00 0.00 34 1017.6
20210613184205 78 67 0.0 0.0 0.00 0.00 0.00 31 1017.6
20210613183705 78 326 0.0 0.0 0.00 0.00 0.00 31 1017.7
20210613183205 79 328 0.0 1.0 0.00 0.00 0.00 31 1017.7
20210613182705 79 335 0.0 4.0 0.00 0.00 0.00 33 1017.8
20210613182206 78 77 1.0 5.0 0.00 0.00 0.00 34 1017.8
20210613181707 77 333 1.0 5.0 0.00 0.00 0.00 35 1017.9
20210613181208 78 4 1.0 5.0 0.00 0.00 0.00 32 1017.9
20210613180705 78 108 0.0 1.0 0.00 0.00 0.00 33 1018.0
20210613180205 78 310 0.0 4.0 0.00 0.00 0.00 31 1018.0
20210613175705 78 326 0.0 4.0 0.00 0.00 0.00 31 1018.0
20210613175205 78 302 0.0 4.0 0.00 0.00 0.00 33 1018.1
20210613174705 77 115 0.0 3.0 0.00 0.00 0.00 34 1018.1
20210613174206 78 338 0.0 4.0 0.00 0.00 0.00 33 1018.0
20210613173705 77 51 0.0 4.0 0.00 0.00 0.00 34 1018.1
20210613173206 77 293 1.0 5.0 0.00 0.00 0.00 35 1018.1
20210613172705 77 302 1.0 7.0 0.00 0.00 0.00 35 1018.1
20210613172205 77 100 1.0 7.0 0.00 0.00 0.00 36 1018.1
20210613171706 77 56 1.0 7.0 0.00 0.00 0.00 36 1018.1
20210613171205 77 326 1.0 5.0 0.00 0.00 0.00 36 1018.1
20210613170705 76 305 1.0 5.0 0.00 0.00 0.00 36 1018.1
20210613170206 76 82 0.0 5.0 0.00 0.00 0.00 36 1018.0
20210613165706 75 314 0.0 5.0 0.00 0.00 0.00 36 1018.1
20210613165205 75 336 1.0 5.0 0.00 0.00 0.00 36 1018.1
20210613164705 75 316 1.0 5.0 0.00 0.00 0.00 39 1018.1
20210613164206 74 338 0.0 4.0 0.00 0.00 0.00 39 1018.1
20210613163706 74 289 0.0 4.0 0.00 0.00 0.00 37 1018.1
20210613163205 75 304 0.0 4.0 0.00 0.00 0.00 35 1018.3
20210613162706 75 49 0.0 3.0 0.00 0.00 0.00 37 1018.3
20210613162206 75 314 0.0 3.0 0.00 0.00 0.00 38 1018.3
20210613161706 74 44 0.0 3.0 0.00 0.00 0.00 42 1018.3
20210613161205 73 48 0.0 0.0 0.00 0.00 0.00 43 1018.3
20210613160705 73 322 0.0 1.0 0.00 0.00 0.00 42 1018.3
20210613160205 73 345 0.0 1.0 0.00 0.00 0.00 42 1018.3